Regional Weather Roundup
Issued by NWS

Home | Current Version | Previous Version | Text Only | Print | Product List | Glossary Off
Versions: 1 2 3 4 5 6 7 8 9 10 11 12 13 14 15 16 17 18 19 20 21 22 23 24 25 26 27 28 29 30 31 32 33 34 35 36 37 38 39 40 41 42 43 44 45 46 47 48 49 50

000
ASUS45 KSLC 252310
RWRUT

UTAH REGIONAL WEATHER ROUNDUP
NATIONAL WEATHER SERVICE SALT LAKE CITY UT
500 PM MDT THU MAY 25 2017

UTZ001>011-023>025-260000-

NORTHERN UTAH

CITY           SKY/WX    TMP DP  RH WIND       PRES   REMARKS
BRIGHAM CITY     N/A     64  22  20 SE5       29.75S
HILL AFB         N/A     63  20  19 SW7       29.75F
LOGAN            N/A     65  26  23 W7        29.74F
OGDEN            N/A     63  14  15 SW5       29.74F
SALT LAKE CITY   N/A     70  29  21 N10G17    29.72F
TOOELE VALLEY    N/A     66  32  28 N13       29.73F
WENDOVER         N/A     70  26  19 E12       29.69F
HEBER CITY       N/A     66  30  26 S8        29.75R
WEST JORDAN      N/A     65  40  38 N9        29.75S

$$

UTZ011>015-024>027-260000-

CENTRAL/NORTHEAST UTAH

CITY           SKY/WX    TMP DP  RH WIND       PRES   REMARKS
PROVO AIRPORT    N/A     67  35  30 W6        29.75R
MOAB/CANYONLAN   N/A     83  18   9 W25G37    29.57F
DELTA          PTSUNNY   68  32  26 N22G28    29.70R
PRICE            N/A     71  25  17 W20G26    29.70S
ROOSEVELT      MOSUNNY   72  23  16 W30G39    29.69S
VERNAL         SUNNY     72  26  18 W29G37    29.66R

$$

UTZ013>016-019>022-027-260000-

SOUTHERN UTAH

CITY           SKY/WX    TMP DP  RH WIND       PRES   REMARKS
BRYCE CANYON     N/A     67  26  21 W21       29.84R
CEDAR CITY       N/A     77  27  15 S22G30    29.69F
MILFORD          N/A     76  26  15 N16       29.64F
ST GEORGE        N/A     91  27  10 W9G21     29.53F
HANKSVILLE       N/A     81  28  15 S10       29.61F
BLANDING         N/A     78  24  13 NW17      29.78S

$$

REGIONAL REPORTS     COLORADO/ARIZONA

CITY           SKY/WX    TMP DP  RH WIND       PRES   REMARKS
CRAIG, CO      LGT RAIN  53  44  71 SE9       29.77R
GRAND JUNCTION PTSUNNY   80  29  15 SW21G28   29.61F
RIFLE, CO      CLOUDY    71  30  21 S13G32    29.66R
MONTROSE, CO   CLOUDY    76  25  15 S16       29.69R
CORTEZ, CO     SUNNY     80  20  10 W13G31    29.71S
COLORADO CITY    N/A     88  27  11 W15G32    29.71S
PAGE, AZ         N/A     86  23  10 W13G18    29.60F
GRAND CANYON     N/A     74  16  11 W16G37    29.84F
KINGMAN, AZ      N/A     90  23   9 SW26G35   29.69S
FLAGSTAFF, AZ    N/A     72  20  14 S26G40    29.91S

$$

REGIONAL REPORTS    NEVADA/IDAHO/WYOMING

CITY           SKY/WX    TMP DP  RH WIND       PRES   REMARKS
LAS VEGAS, NV    N/A     99  11   4 W22G35    29.51S HX  91
ELY, NY        PTSUNNY   68  21  16 S13       29.74F
ELKO, NV         N/A     71  23  16 W22G30    29.70F
POCATELLO, ID  MOSUNNY   63  24  22 VRB6      29.77F
BURLEY, ID     CLOUDY    60  27  28 CALM      29.74F
FORT BRIDGER,    N/A     61  17  18 W21G28    29.83R
EVANSTON, WY   SUNNY     56  24  29 W17       29.82S
ROCK SPRINGS,  PTSUNNY   59  23  25 W22G28    29.77R
KEMMERER, WY     N/A     55  19  24 W17G23    29.82R

$$



USA.gov is the U.S. government's official web portal to all federal, state and local government web resources and services.